Simultaneous Nadir Overpasses (SNOs) Predictions

Prediction of SNOs between AURA and NPP Satellite Orbit:

Table of predicted SNOs for the next 14.0 days since TLE Epoch: 3/27/2016
Index Date (AURA) Time (AURA) Lat,Lon (AURA) SZA (AURA ) Date (NPP) Time (NPP) Lat,Lon (NPP) SZA (NPP ) Distance(km) Time Diff (sec)
1 03/29/2016 10:36:06 -79.19, 95.83 90.54 03/29/2016 10:34:54 -79.20, 95.90 90.50 1.57 72
2 03/29/2016 11:25:26 79.42, -95.04 89.13 03/29/2016 11:25:32 79.41, -95.18 89.15 3.05 6
3 04/01/2016 02:52:35 -79.22,-148.10 91.64 04/01/2016 02:51:50 -79.21,-148.23 91.58 2.90 45
4 04/01/2016 03:41:53 79.52, 21.55 87.92 04/01/2016 03:42:25 79.52, 21.50 87.90 0.96 32
5 04/03/2016 19:09:00 -79.40, -31.07 92.94 04/03/2016 19:08:41 -79.40, -31.05 92.93 0.33 19
6 04/03/2016 19:58:18 79.69, 138.63 86.62 04/03/2016 19:59:16 79.70, 138.75 86.56 2.47 58
7 04/06/2016 10:36:05 79.24, -83.85 86.27 04/06/2016 10:34:55 79.24, -83.78 86.31 1.58 70
8 04/06/2016 11:25:27 -79.45, 85.15 94.04 04/06/2016 11:25:35 -79.44, 85.08 94.04 1.62 8
9 04/09/2016 02:52:32 79.32, 32.54 85.14 04/09/2016 02:51:49 79.32, 32.59 85.16 1.05 43




NCC Satellite Simultaneous Nadir Overpasses (SNOs) Prediction Service
